Total_Precipitation_Accumulation
0.14 0.09 0.06 0.04 0.03 0.02 0.02 0.02 0.02 0.03 0.03 0.02 0.02 0.01 0.00 0.00 0.00 0.00 0.00 0.00 0.00 0.00 0.00 0.00 0.00 0.00 0.00 0.00 0.00 0.00 0.00 0.00 0.00 0.00 0.00 0.00 0.00 0.00 0.00 0.00 0.00 0.00 0.00 0.00 0.00 0.01 0.00 0.00 0.00 0.00 0.00 0.00 0.00 0.00
0.12 0.10 0.08 0.07 0.06 0.06 0.05 0.05 0.05 0.05 0.04 0.03 0.02 0.01 0.01 0.00 0.01 0.00 0.01 0.00 0.00 0.00 0.00 0.00 0.00 0.00 0.00 0.00 0.00 0.00 0.00 0.00 0.00 0.00 0.00 0.00 0.00 0.00 0.00 0.00 0.00 0.00 0.00 0.00 0.00 0.00 0.00 0.00 0.00 0.00 0.00 0.00 0.00 0.00
0.08 0.09 0.10 0.10 0.10 0.10 0.09 0.06 0.05 0.03 0.02 0.02 0.01 0.01 0.01 0.01 0.03 0.05 0.02 0.03 0.03 0.04 0.01 0.00 0.00 0.00 0.00 0.00 0.00 0.00 0.00 0.00 0.00 0.00 0.01 0.01 0.01 0.00 0.00 0.00 0.00 0.00 0.00 0.00 0.00 0.00 0.00 0.00 0.00 0.00 0.00 0.00 0.00 0.00
0.03 0.05 0.06 0.07 0.09 0.10 0.10 0.08 0.06 0.04 0.02 0.02 0.02 0.01 0.01 0.02 0.03 0.06 0.06 0.07 0.09 0.13 0.08 0.01 0.00 0.00 0.00 0.00 0.00 0.00 0.00 0.00 0.00 0.00 0.03 0.07 0.04 0.00 0.00 0.00 0.00 0.00 0.00 0.00 0.00 0.00 0.00 0.00 0.00 0.00 0.00 0.00 0.00 0.00
0.01 0.02 0.03 0.03 0.04 0.05 0.06 0.05 0.04 0.04 0.03 0.02 0.01 0.01 0.01 0.01 0.01 0.01 0.01 0.03 0.08 0.17 0.18 0.04 0.00 0.00 0.00 0.00 0.00 0.00 0.00 0.00 0.00 0.03 0.09 0.05 0.02 0.05 0.05 0.02 0.01 0.00 0.02 0.03 0.04 0.04 0.08 0.12 0.05 0.02 0.00 0.00 0.00 0.00
0.01 0.01 0.01 0.01 0.02 0.03 0.03 0.02 0.03 0.02 0.03 0.02 0.00 0.00 0.00 0.00 0.01 0.01 0.03 0.04 0.02 0.05 0.23 0.11 0.00 0.00 0.00 0.00 0.00 0.00 0.00 0.01 0.02 0.05 0.07 0.07 0.05 0.12 0.23 0.05 0.02 0.00 0.02 0.05 0.09 0.03 0.05 0.07 0.02 0.00 0.00 0.01 0.03 0.06
0.02 0.02 0.02 0.01 0.02 0.03 0.02 0.02 0.03 0.03 0.04 0.04 0.03 0.01 0.01 0.01 0.01 0.01 0.03 0.15 0.23 0.17 0.30 0.12 0.01 0.00 0.00 0.00 0.00 0.00 0.00 0.02 0.07 0.09 0.09 0.05 0.06 0.25 0.55 0.31 0.06 0.00 0.00 0.01 0.01 0.01 0.03 0.04 0.12 0.16 0.23 0.31 0.31 0.27
0.03 0.03 0.03 0.03 0.02 0.02 0.02 0.03 0.03 0.04 0.05 0.06 0.05 0.04 0.03 0.03 0.02 0.01 0.01 0.04 0.18 0.51 0.68 0.37 0.04 0.00 0.00 0.00 0.00 0.01 0.02 0.02 0.04 0.06 0.05 0.04 0.08 0.26 0.53 0.16 0.01 0.00 0.00 0.03 0.06 0.10 0.22 0.29 0.30 0.29 0.20 0.12 0.07 0.04
0.02 0.02 0.03 0.04 0.03 0.03 0.04 0.04 0.04 0.05 0.05 0.06 0.07 0.04 0.02 0.03 0.03 0.03 0.02 0.02 0.07 0.38 0.74 0.47 0.07 0.01 0.00 0.01 0.01 0.01 0.02 0.06 0.06 0.06 0.02 0.06 0.11 0.32 0.23 0.09 0.07 0.07 0.10 0.23 0.29 0.25 0.21 0.15 0.11 0.05 0.02 0.02 0.02 0.02
0.03 0.03 0.03 0.04 0.04 0.05 0.05 0.04 0.06 0.07 0.10 0.12 0.06 0.04 0.02 0.03 0.03 0.04 0.10 0.17 0.29 0.30 0.51 0.25 0.02 0.00 0.00 0.01 0.07 0.12 0.26 0.24 0.31 0.11 0.11 0.31 0.31 0.25 0.20 0.13 0.16 0.24 0.29 0.26 0.18 0.10 0.05 0.03 0.03 0.02 0.02 0.02 0.01 0.01
0.04 0.04 0.03 0.04 0.05 0.06 0.06 0.05 0.07 0.09 0.15 0.12 0.09 0.03 0.01 0.03 0.08 0.17 0.23 0.24 0.32 0.38 0.24 0.14 0.05 0.07 0.09 0.10 0.22 0.29 0.36 0.27 0.32 0.06 0.11 0.24 0.24 0.16 0.16 0.17 0.21 0.21 0.15 0.07 0.04 0.03 0.02 0.02 0.02 0.01 0.01 0.01 0.01 0.00
0.06 0.06 0.06 0.06 0.06 0.08 0.11 0.09 0.11 0.10 0.12 0.10 0.14 0.12 0.07 0.05 0.12 0.16 0.17 0.22 0.30 0.32 0.31 0.21 0.10 0.07 0.04 0.06 0.21 0.32 0.38 0.36 0.33 0.14 0.24 0.25 0.20 0.14 0.14 0.19 0.18 0.07 0.03 0.02 0.03 0.02 0.01 0.01 0.01 0.00 0.00 0.00 0.00 0.00
0.09 0.08 0.06 0.06 0.08 0.08 0.11 0.12 0.21 0.21 0.16 0.23 0.22 0.25 0.13 0.10 0.14 0.14 0.05 0.08 0.17 0.16 0.19 0.23 0.21 0.23 0.24 0.23 0.37 0.35 0.41 0.37 0.23 0.30 0.33 0.24 0.21 0.17 0.08 0.04 0.02 0.02 0.02 0.01 0.01 0.00 0.00 0.00 0.00 0.00 0.00 0.00 0.00 0.00
0.08 0.08 0.07 0.07 0.07 0.11 0.13 0.13 0.21 0.19 0.18 0.33 0.28 0.23 0.16 0.11 0.08 0.12 0.06 0.02 0.01 0.07 0.18 0.23 0.22 0.18 0.25 0.33 0.37 0.34 0.31 0.27 0.30 0.30 0.26 0.22 0.11 0.05 0.04 0.04 0.03 0.01 0.01 0.01 0.00 0.00 0.00 0.00 0.00 0.00 0.00 0.00 0.00 0.00
0.09 0.09 0.08 0.05 0.09 0.16 0.17 0.21 0.26 0.20 0.34 0.38 0.31 0.20 0.08 0.01 0.05 0.16 0.03 0.01 0.02 0.03 0.05 0.05 0.03 0.02 0.02 0.04 0.06 0.08 0.05 0.10 0.14 0.10 0.09 0.03 0.01 0.01 0.01 0.02 0.01 0.00 0.00 0.00 0.00 0.00 0.00 0.00 0.00 0.00 0.00 0.00 0.00 0.00
0.15 0.11 0.04 0.04 0.07 0.22 0.21 0.23 0.16 0.18 0.40 0.32 0.26 0.15 0.06 0.03 0.01 0.01 0.02 0.02 0.04 0.08 0.07 0.04 0.06 0.06 0.03 0.05 0.05 0.03 0.03 0.02 0.02 0.01 0.01 0.00 0.00 0.00 0.00 0.00 0.00 0.00 0.00 0.00 0.00 0.00 0.00 0.00 0.00 0.00 0.00 0.00 0.00 0.00
0.25 0.09 0.03 0.10 0.19 0.21 0.22 0.14 0.03 0.12 0.23 0.25 0.13 0.01 0.00 0.00 0.00 0.00 0.02 0.04 0.06 0.06 0.05 0.12 0.21 0.11 0.08 0.05 0.02 0.01 0.01 0.02 0.01 0.00 0.00 0.00 0.00 0.00 0.00 0.00 0.00 0.00 0.00 0.00 0.00 0.00 0.00 0.00 0.00 0.00 0.00 0.00 0.00 0.00
0.19 0.03 0.08 0.19 0.24 0.13 0.13 0.05 0.10 0.17 0.11 0.08 0.07 0.03 0.01 0.01 0.01 0.01 0.01 0.02 0.04 0.08 0.13 0.17 0.24 0.27 0.17 0.08 0.01 0.01 0.01 0.00 0.00 0.00 0.00 0.00 0.00 0.00 0.00 0.00 0.00 0.00 0.00 0.00 0.00 0.00 0.00 0.00 0.00 0.00 0.00 0.00 0.00 0.00
0.09 0.08 0.11 0.28 0.30 0.16 0.12 0.08 0.05 0.10 0.01 0.00 0.00 0.00 0.00 0.00 0.00 0.00 0.00 0.01 0.02 0.05 0.14 0.18 0.23 0.14 0.01 0.00 0.01 0.00 0.00 0.00 0.00 0.00 0.00 0.00 0.00 0.00 0.00 0.00 0.00 0.00 0.00 0.00 0.00 0.00 0.00 0.00 0.00 0.00 0.00 0.00 0.00 0.01
0.23 0.27 0.29 0.48 0.28 0.24 0.28 0.24 0.17 0.05 0.01 0.00 0.00 0.00 0.00 0.00 0.00 0.00 0.00 0.00 0.02 0.07 0.10 0.10 0.03 0.00 0.00 0.00 0.00 0.00 0.00 0.00 0.00 0.00 0.00 0.00 0.00 0.00 0.00 0.00 0.00 0.00 0.00 0.00 0.00 0.00 0.00 0.01 0.00 0.01 0.01 0.01 0.03 0.03
0.31 0.34 0.53 0.47 0.41 0.25 0.18 0.11 0.15 0.07 0.01 0.01 0.00 0.01 0.00 0.00 0.00 0.00 0.00 0.00 0.02 0.03 0.01 0.00 0.00 0.00 0.00 0.00 0.00 0.00 0.00 0.00 0.00 0.00 0.00 0.00 0.00 0.00 0.00 0.00 0.00 0.00 0.00 0.01 0.01 0.01 0.01 0.01 0.01 0.01 0.02 0.02 0.02 0.03
0.25 0.25 0.58 0.29 0.25 0.40 0.36 0.10 0.04 0.04 0.03 0.02 0.02 0.02 0.01 0.01 0.00 0.00 0.01 0.01 0.01 0.00 0.00 0.00 0.00 0.00 0.00 0.00 0.00 0.00 0.00 0.00 0.00 0.00 0.00 0.00 0.00 0.00 0.00 0.00 0.00 0.01 0.01 0.01 0.02 0.02 0.01 0.02 0.02 0.03 0.04 0.02 0.02 0.01
0.25 0.17 0.24 0.13 0.09 0.08 0.07 0.05 0.09 0.05 0.03 0.02 0.02 0.01 0.00 0.01 0.01 0.00 0.00 0.00 0.00 0.00 0.00 0.00 0.00 0.00 0.00 0.00 0.00 0.00 0.00 0.00 0.00 0.00 0.00 0.00 0.00 0.00 0.00 0.00 0.00 0.02 0.03 0.02 0.01 0.02 0.03 0.01 0.01 0.02 0.01 0.01 0.01 0.01
0.11 0.11 0.13 0.12 0.11 0.05 0.06 0.05 0.06 0.03 0.03 0.03 0.02 0.01 0.00 0.00 0.00 0.00 0.00 0.00 0.00 0.00 0.00 0.00 0.00 0.00 0.00 0.00 0.00 0.00 0.00 0.00 0.00 0.00 0.00 0.01 0.01 0.00 0.00 0.00 0.00 0.00 0.01 0.02 0.03 0.03 0.01 0.01 0.01 0.00 0.01 0.01 0.02 0.03
0.12 0.06 0.01 0.03 0.07 0.08 0.04 0.02 0.02 0.02 0.01 0.00 0.01 0.00 0.00 0.00 0.00 0.00 0.00 0.00 0.00 0.00 0.00 0.00 0.00 0.00 0.00 0.00 0.00 0.00 0.00 0.00 0.02 0.02 0.00 0.00 0.01 0.03 0.01 0.00 0.00 0.00 0.01 0.06 0.03 0.02 0.01 0.01 0.01 0.01 0.02 0.05 0.14 0.19
0.04 0.00 0.00 0.00 0.01 0.01 0.00 0.00 0.01 0.00 0.00 0.00 0.00 0.00 0.00 0.00 0.00 0.00 0.00 0.00 0.00 0.00 0.01 0.01 0.01 0.01 0.00 0.00 0.00 0.00 0.00 0.01 0.03 0.03 0.00 0.00 0.02 0.13 0.12 0.05 0.02 0.01 0.01 0.03 0.08 0.11 0.09 0.06 0.07 0.08 0.09 0.07 0.12 0.18
0.00 0.00 0.00 0.00 0.00 0.00 0.00 0.00 0.00 0.00 0.00 0.00 0.00 0.00 0.00 0.00 0.00 0.00 0.00 0.01 0.03 0.05 0.06 0.06 0.05 0.04 0.02 0.00 0.00 0.00 0.00 0.01 0.03 0.04 0.01 0.00 0.01 0.07 0.15 0.20 0.16 0.07 0.08 0.08 0.10 0.16 0.24 0.17 0.12 0.10 0.10 0.06 0.07 0.16
0.00 0.00 0.00 0.00 0.00 0.00 0.00 0.00 0.00 0.00 0.00 0.00 0.00 0.00 0.00 0.00 0.00 0.02 0.05 0.08 0.08 0.08 0.07 0.04 0.02 0.01 0.00 0.00 0.01 0.04 0.02 0.00 0.00 0.00 0.00 0.00 0.00 0.01 0.03 0.07 0.08 0.10 0.15 0.15 0.22 0.26 0.21 0.19 0.17 0.15 0.15 0.16 0.11 0.09
0.00 0.00 0.00 0.00 0.01 0.01 0.00 0.00 0.00 0.00 0.00 0.00 0.00 0.01 0.02 0.04 0.07 0.11 0.13 0.12 0.10 0.06 0.02 0.00 0.00 0.00 0.00 0.00 0.00 0.02 0.03 0.04 0.07 0.05 0.01 0.00 0.00 0.00 0.01 0.02 0.03 0.05 0.09 0.09 0.06 0.10 0.21 0.28 0.30 0.32 0.25 0.17 0.10 0.09
0.00 0.00 0.02 0.02 0.01 0.01 0.00 0.00 0.00 0.00 0.00 0.00 0.00 0.00 0.02 0.08 0.13 0.13 0.12 0.11 0.07 0.02 0.01 0.00 0.00 0.00 0.01 0.01 0.01 0.00 0.00 0.01 0.09 0.26 0.33 0.17 0.06 0.04 0.04 0.04 0.05 0.05 0.06 0.08 0.06 0.03 0.04 0.09 0.08 0.07 0.10 0.09 0.08 0.09
0.02 0.03 0.05 0.03 0.01 0.00 0.00 0.00 0.00 0.00 0.00 0.00 0.00 0.00 0.02 0.07 0.14 0.14 0.08 0.06 0.02 0.01 0.00 0.00 0.00 0.00 0.03 0.04 0.07 0.10 0.07 0.01 0.01 0.06 0.16 0.18 0.08 0.06 0.05 0.05 0.09 0.12 0.10 0.11 0.10 0.10 0.11 0.09 0.10 0.09 0.08 0.08 0.08 0.10
0.03 0.03 0.03 0.02 0.00 0.00 0.00 0.00 0.00 0.00 0.00 0.00 0.00 0.02 0.05 0.08 0.16 0.15 0.05 0.03 0.01 0.00 0.01 0.01 0.02 0.02 0.01 0.02 0.03 0.08 0.16 0.11 0.08 0.10 0.16 0.19 0.17 0.11 0.11 0.13 0.11 0.12 0.12 0.12 0.12 0.13 0.13 0.13 0.10 0.10 0.10 0.08 0.09 0.09
0.02 0.02 0.03 0.03 0.00 0.00 0.00 0.00 0.00 0.00 0.00 0.02 0.05 0.06 0.06 0.09 0.13 0.09 0.05 0.03 0.02 0.04 0.03 0.03 0.03 0.02 0.00 0.01 0.02 0.02 0.02 0.04 0.06 0.11 0.14 0.16 0.17 0.20 0.23 0.13 0.09 0.10 0.12 0.11 0.10 0.11 0.11 0.10 0.09 0.08 0.08 0.09 0.08 0.08